Вернуться в каталог

NOAA 16 DEB

АктивенSSO
NORAD 42397·DEBRIS·🇺🇸 United States

Запущен Sep 21, 2000 с Vandenberg Space Force Base

Loading…

Ближайшие Пролёты (ближайшие 24 часа)

TLE

СвежийSource: Space-Track

Эпоха: Sep 14, 2026, 12:37 UTC

1 42397U 00055SR  26257.52615143  .00006204  00000-0  16588-2 0  9996
2 42397  98.7321 357.8147 0027826  24.1938 336.0554 14.48440818546670

Отслеживайте NOAA 16 DEB в реальном времени с AllMySat

Download on the App Store